Biloxi, MS

2:58 PM CST on January 21, 2018 (GMT -0600)
Keesler Air Force Base

Weather History for KBIX - February, 2014

Change the Weather History Date:

Wednesday, February 26, 2014

  Actual Average Record
Temperature  
Mean Temperature 52 °F -  
Max Temperature 62 °F 65 °F 78 °F (2001)
Min Temperature 40 °F 46 °F 28 °F (1967)
Degree Days  
Heating Degree Days 14    
Growing Degree Days 2 (Base 50)    
Moisture  
Dew Point 52 °F    
Average Humidity 94    
Maximum Humidity 100    
Minimum Humidity 61    
Precipitation  
Precipitation 1.38 in - - ()
Sea Level Pressure  
Sea Level Pressure 29.92 in    
Wind  
Wind Speed 9 mph (NNE)    
Max Wind Speed 20 mph    
Max Gust Speed 29 mph    
Visibility 7 miles    
Events Rain , Thunderstorm    
Averages and records for this station are not official NWS values.
T = Trace of Precipitation, MM = Missing Value Source: NWS Daily Summary

Daily Weather History Graph

Daily Weather History Graph

Search for Another Location

Airport or City:

Trip Planner

Search our weather history database for the weather conditions in past years. The results will help you decide how hot, cold, wet, or windy it might be!

Date:

Astronomy

Feb. 26, 2014 Rise Set
Actual Time 6:25 AM CST 5:52 PM CST
Civil Twilight 6:00 AM CST 6:16 PM CST
Nautical Twilight 5:33 AM CST 6:44 PM CST
Astronomical Twilight 5:05 AM CST 7:12 PM CST
Moon 4:02 AM CST (2/26) 3:14 PM CST (2/26)
Length of Visible Light 12h 15m
Length of Day
11h 27m
Waning Crescent, 10% of the Moon is Illuminated
Feb 26
Waning Crescent
Mar 1
New
Mar 8
First Quarter
Mar 16
Full
Mar 23
Last Quarter

Hourly Weather History & Observations

Time (CST) Temp. Windchill Dew Point Humidity Pressure Visibility Wind Dir Wind Speed Gust Speed Precip Events Conditions
12:04 AM 62.6 °F - 62.6 °F 100% 29.93 in 3.0 mi SW 6.9 mph - N/A Rain Rain
12:14 AM 62.6 °F - 62.6 °F 100% 29.92 in 3.0 mi SSW 4.6 mph - N/A Rain Rain
12:22 AM 62.6 °F - 62.6 °F 100% 29.92 in 3.0 mi SW 12.7 mph - N/A Rain , Thunderstorm Thunderstorms and Rain
12:27 AM 62.6 °F - 62.6 °F 100% 29.92 in 4.0 mi SW 9.2 mph - N/A Rain , Thunderstorm Light Thunderstorms and Rain
12:32 AM 62.6 °F - 62.6 °F 100% 29.92 in 4.0 mi SW 9.2 mph - N/A Rain , Thunderstorm Thunderstorms and Rain
12:47 AM 62.6 °F - 62.6 °F 100% 29.91 in 4.0 mi SSW 9.2 mph - N/A Rain , Thunderstorm Light Thunderstorms and Rain
12:52 AM 62.6 °F - 62.6 °F 100% 29.90 in 4.0 mi South 10.4 mph - N/A Rain , Thunderstorm Thunderstorms and Rain
12:55 AM 62.6 °F - 62.6 °F 100% 29.90 in 4.0 mi South 10.4 mph - N/A Rain , Thunderstorm Light Rain
12:56 AM 62.6 °F - 62.6 °F 100% 29.90 in 4.0 mi SSW 10.4 mph - N/A Rain , Thunderstorm Light Thunderstorms and Rain
12:58 AM 62.6 °F - 62.6 °F 100% 29.91 in 4.0 mi SSW 11.5 mph - 0.27 in Rain , Thunderstorm Light Thunderstorms and Rain
1:03 AM 62.6 °F - 62.6 °F 100% 29.90 in 4.0 mi SSW 13.8 mph - N/A Rain , Thunderstorm Light Thunderstorms and Rain
1:08 AM 62.6 °F - 62.6 °F 100% 29.90 in 2.5 mi SW 9.2 mph - N/A Rain , Thunderstorm Light Thunderstorms and Rain
1:13 AM 62.6 °F - 62.6 °F 100% 29.89 in 3.0 mi SSW 10.4 mph - N/A Rain , Thunderstorm Thunderstorms and Rain
1:18 AM 62.6 °F - 62.6 °F 100% 29.90 in 4.0 mi SSW 10.4 mph - N/A Rain , Thunderstorm Light Thunderstorms and Rain
1:19 AM 62.6 °F - 62.6 °F 100% 29.90 in 5.0 mi SW 11.5 mph - N/A Rain Light Rain
1:29 AM 62.6 °F - 62.6 °F 100% 29.89 in 2.5 mi SW 8.1 mph - N/A Rain , Thunderstorm Light Rain
1:32 AM 62.6 °F - 62.6 °F 100% 29.89 in 3.0 mi WSW 4.6 mph - N/A Rain , Thunderstorm Light Thunderstorms and Rain
1:42 AM 62.6 °F - 62.6 °F 100% 29.90 in 2.0 mi WSW 3.5 mph - N/A Rain , Thunderstorm Heavy Thunderstorms and Rain
1:47 AM 62.6 °F - 62.6 °F 100% 29.89 in 1.8 mi Variable 1.2 mph - N/A Rain , Thunderstorm Heavy Rain
1:52 AM 62.6 °F - 62.6 °F 100% 29.88 in 2.0 mi Calm Calm - N/A Rain , Thunderstorm Heavy Rain
1:53 AM 62.6 °F - 62.6 °F 100% 29.88 in 2.5 mi Calm Calm - N/A Rain , Thunderstorm Thunderstorms and Rain
1:58 AM 62.6 °F - 62.6 °F 100% 29.88 in 3.0 mi Variable 1.2 mph - 0.39 in Rain , Thunderstorm Light Thunderstorms and Rain
2:03 AM 62.6 °F - 62.6 °F 100% 29.88 in 5.0 mi WSW 2.3 mph - N/A Rain , Thunderstorm Light Thunderstorms and Rain
2:08 AM 62.6 °F - 62.6 °F 100% 29.88 in 5.0 mi Calm Calm - N/A Rain , Thunderstorm Light Thunderstorms and Rain
2:13 AM 62.6 °F - 62.6 °F 100% 29.88 in 5.0 mi Calm Calm - N/A Rain , Thunderstorm Light Thunderstorms and Rain
2:18 AM 62.6 °F - 62.6 °F 100% 29.88 in 5.0 mi Calm Calm - N/A Rain , Thunderstorm Light Thunderstorms and Rain
2:19 AM 62.6 °F - 62.6 °F 100% 29.87 in 5.0 mi Variable 1.2 mph - N/A Rain , Thunderstorm Light Rain
2:24 AM 62.6 °F - 62.6 °F 100% 29.87 in 4.0 mi SSW 1.2 mph - N/A Rain Rain
2:29 AM 62.6 °F - 62.6 °F 100% 29.87 in 4.0 mi Calm Calm - N/A Rain Rain
2:34 AM 62.6 °F - 62.6 °F 100% 29.86 in 4.0 mi Calm Calm - N/A Rain Rain
2:39 AM 62.6 °F - 62.6 °F 100% 29.86 in 5.0 mi Calm Calm - N/A Rain Light Rain
2:44 AM 62.6 °F - 62.6 °F 100% 29.85 in 7.0 mi NE 3.5 mph - N/A Rain Light Rain
2:58 AM 59.0 °F - 59.0 °F 100% 29.88 in 10.0 mi NNE 8.1 mph - 0.14 in Rain Light Rain
3:03 AM 57.2 °F - 57.2 °F 100% 29.86 in 10.0 mi NNE 13.8 mph 19.6 mph N/A Rain Light Rain
3:13 AM 55.4 °F - 55.4 °F 100% 29.86 in 10.0 mi NE 12.7 mph 17.3 mph N/A Rain Light Rain
3:23 AM 55.4 °F - 55.4 °F 100% 29.86 in 10.0 mi NE 12.7 mph - N/A Rain Light Rain
3:28 AM 55.4 °F - 55.4 °F 100% 29.86 in 10.0 mi NE 11.5 mph - N/A Rain Light Rain
3:33 AM 55.4 °F - 55.4 °F 100% 29.87 in 10.0 mi NE 8.1 mph - N/A Rain Light Rain
3:43 AM 55.4 °F - 55.4 °F 100% 29.86 in 6.0 mi NE 8.1 mph - N/A Rain Rain
3:48 AM 55.4 °F - 55.4 °F 100% 29.86 in 4.0 mi ENE 8.1 mph - N/A Rain Heavy Rain
3:58 AM 56.1 °F - 56.1 °F 100% 29.87 in 4.0 mi NE 6.9 mph - 0.13 in Rain Rain
4:08 AM 55.4 °F - 55.4 °F 100% 29.85 in 5.0 mi ENE 5.8 mph - N/A Rain Rain
4:23 AM 57.2 °F - 57.2 °F 100% 29.86 in 5.0 mi NE 4.6 mph - N/A Rain Rain
4:33 AM 57.2 °F - 57.2 °F 100% 29.85 in 5.0 mi NE 9.2 mph - N/A Rain Rain
4:38 AM 57.2 °F - 57.2 °F 100% 29.86 in 7.0 mi NNE 6.9 mph - N/A Rain Light Rain
4:53 AM 57.2 °F - 57.2 °F 100% 29.88 in 6.0 mi Variable 5.8 mph - N/A Rain Rain
4:58 AM 55.4 °F - 55.4 °F 100% 29.89 in 6.0 mi NNE 9.2 mph - 0.19 in Rain Light Rain
5:03 AM 55.4 °F - 55.4 °F 100% 29.89 in 9.0 mi NNE 8.1 mph 18.4 mph N/A Rain Light Rain
5:08 AM 55.4 °F - 55.4 °F 100% 29.88 in 10.0 mi NNE 10.4 mph 18.4 mph N/A Rain Light Rain
5:13 AM 55.4 °F - 55.4 °F 100% 29.89 in 10.0 mi Variable 5.8 mph - N/A Rain Light Rain
5:18 AM 55.4 °F - 55.4 °F 100% 29.88 in 10.0 mi NNE 9.2 mph - N/A Rain Light Rain
5:28 AM 53.6 °F - 53.6 °F 100% 29.88 in 10.0 mi NNE 12.7 mph 23.0 mph N/A Rain Light Rain
5:58 AM 53.1 °F - 53.1 °F 100% 29.92 in 10.0 mi North 8.1 mph - 0.05 in Rain Rain
6:03 AM 51.8 °F - 51.8 °F 100% 29.91 in 9.0 mi NNE 12.7 mph 17.3 mph N/A Rain Rain
6:13 AM 51.8 °F - 51.8 °F 100% 29.90 in 10.0 mi NNE 15.0 mph 20.7 mph N/A Rain Light Rain
6:43 AM 51.8 °F - 51.8 °F 100% 29.92 in 10.0 mi NNE 15.0 mph 21.9 mph N/A Rain Light Rain
6:58 AM 51.8 °F - 51.6 °F 99% 29.94 in 7.0 mi NNE 11.5 mph 19.6 mph 0.06 in Rain Light Rain
7:53 AM 48.2 °F - 48.2 °F 100% 29.96 in 10.0 mi NNE 17.3 mph 28.8 mph N/A Rain Light Rain
7:58 AM 48.6 °F - 47.5 °F 96% 29.98 in 10.0 mi NNE 17.3 mph 28.8 mph 0.08 in Rain Light Rain
8:13 AM 48.2 °F - 46.4 °F 93% 29.97 in 10.0 mi NNE 13.8 mph 20.7 mph N/A Rain Light Rain
8:28 AM 46.4 °F 40.7 °F 46.4 °F 100% 29.99 in 10.0 mi NNE 12.7 mph 28.8 mph N/A Rain Light Rain
8:43 AM 46.4 °F 40.7 °F 46.4 °F 100% 29.99 in 10.0 mi NNE 12.7 mph 19.6 mph N/A Rain Light Rain
8:58 AM 46.9 °F - 46.2 °F 97% 29.99 in 10.0 mi NNE 16.1 mph - 0.03 in Rain Light Rain
9:11 AM 46.4 °F 39.0 °F 44.6 °F 93% 29.97 in 10.0 mi NNE 19.6 mph 25.3 mph N/A Rain Light Rain
9:16 AM 46.4 °F 40.4 °F 44.6 °F 93% 29.98 in 10.0 mi NE 13.8 mph 25.3 mph N/A Rain Light Rain
9:31 AM 46.4 °F 40.1 °F 44.6 °F 93% 29.98 in 10.0 mi NNE 15.0 mph 21.9 mph N/A Rain Light Rain
9:41 AM 46.4 °F 40.7 °F 46.4 °F 100% 29.99 in 10.0 mi NNE 12.7 mph 21.9 mph N/A Rain Light Rain
9:58 AM 45.9 °F 38.5 °F 44.8 °F 96% 30.01 in 10.0 mi NNE 18.4 mph 21.9 mph 0.02 in Rain Light Rain
10:53 AM 44.6 °F 37.4 °F 44.6 °F 100% 30.00 in 10.0 mi NNE 16.1 mph 21.9 mph N/A Rain Light Rain
10:58 AM 45.1 °F 37.6 °F 43.7 °F 95% 30.01 in 10.0 mi NNE 18.4 mph 24.2 mph 0.02 in Rain Light Rain
11:06 AM 44.6 °F 37.4 °F 42.8 °F 93% 30.00 in 10.0 mi NNE 16.1 mph 24.2 mph N/A   Overcast
11:16 AM 44.6 °F 36.9 °F 42.8 °F 93% 30.00 in 10.0 mi North 18.4 mph 23.0 mph N/A   Overcast
11:58 AM 44.4 °F 37.2 °F 42.8 °F 94% 29.99 in 10.0 mi North 16.1 mph 25.3 mph 0.00 in   Overcast
12:08 PM 42.8 °F 34.5 °F 41.0 °F 93% 29.98 in 10.0 mi North 18.4 mph 25.3 mph N/A   Overcast
12:40 PM 42.8 °F 36.6 °F 39.2 °F 87% 29.96 in 10.0 mi NNE 11.5 mph 20.7 mph N/A   Overcast
12:58 PM 43.5 °F 37.1 °F 39.7 °F 87% 29.97 in 10.0 mi North 12.7 mph 19.6 mph N/A   Overcast
1:03 PM 44.6 °F 38.8 °F 41.0 °F 87% 29.96 in 10.0 mi North 11.5 mph 19.6 mph N/A   Overcast
1:08 PM 44.6 °F 37.8 °F 41.0 °F 87% 29.95 in 10.0 mi NNE 15.0 mph - N/A   Overcast
1:23 PM 44.6 °F 37.4 °F 41.0 °F 87% 29.95 in 10.0 mi North 16.1 mph 20.7 mph N/A   Overcast
1:28 PM 44.6 °F 38.1 °F 41.0 °F 87% 29.94 in 10.0 mi NNE 13.8 mph 20.7 mph N/A   Overcast
1:58 PM 46.6 °F - 40.3 °F 79% 29.94 in 10.0 mi North 16.1 mph - N/A   Overcast
2:58 PM 48.2 °F - 40.3 °F 74% 29.93 in 10.0 mi NNE 11.5 mph - N/A   Mostly Cloudy
3:18 PM 48.2 °F - 41.0 °F 76% 29.93 in 10.0 mi NNE 12.7 mph - N/A   Overcast
3:48 PM 46.4 °F 41.5 °F 37.4 °F 71% 29.94 in 10.0 mi NNE 10.4 mph - N/A   Mostly Cloudy
3:58 PM 47.3 °F - 38.7 °F 72% 29.95 in 10.0 mi NNE 13.8 mph - N/A   Mostly Cloudy
4:58 PM 46.9 °F - 36.7 °F 68% 29.98 in 10.0 mi North 11.5 mph - N/A   Scattered Clouds
5:58 PM 46.8 °F - 36.5 °F 67% 29.99 in 10.0 mi North 10.4 mph - N/A   Scattered Clouds
6:58 PM 46.0 °F 40.6 °F 34.7 °F 65% 30.00 in 10.0 mi North 11.5 mph - N/A   Clear
7:58 PM 45.5 °F 39.2 °F 34.2 °F 65% 30.03 in 10.0 mi North 13.8 mph - N/A   Clear
8:58 PM 44.4 °F 39.0 °F 31.6 °F 61% 30.03 in 10.0 mi North 10.4 mph - N/A   Overcast
9:58 PM 43.2 °F 35.9 °F 31.6 °F 64% 30.06 in 10.0 mi North 15.0 mph 19.6 mph N/A   Overcast
10:58 PM 41.5 °F 35.0 °F 29.5 °F 62% 30.06 in 10.0 mi NNE 11.5 mph - N/A   Scattered Clouds
11:58 PM 40.8 °F 34.5 °F 30.2 °F 66% 30.06 in 10.0 mi NNE 10.4 mph - N/A   Overcast